,,,PA_Meas_PMT16A,,PR_Meas_QMR101_102,,RH_Meas_QMH101,,SR_Meas_QMS101,,TA_Meas_QMH101,,GenWind,,GenWind,
date,time,status,PA,status,PR,status,RH,status,SR,status,TA,status,DirAvg,status,SpdAvg,
2012-05-25, 00:00:04,VALID,1004.02,VALID,0,VALID,90.9363,VALID,0,VALID,25.5902,VALID,26,VALID,0.560156,
2012-05-25, 00:01:04,VALID,1004.03,VALID,0,VALID,90.8676,VALID,0,VALID,25.5902,VALID,26,VALID,0.582812,
2012-05-25, 00:02:04,VALID,1004.01,VALID,0,VALID,90.7989,VALID,0,VALID,25.6486,VALID,26,VALID,0.691016,
2012-05-25, 00:03:04,VALID,1003.95,VALID,0,VALID,90.5853,VALID,0,VALID,25.7285,VALID,18,VALID,0.629687,
2012-05-25, 00:04:04,VALID,1003.93,VALID,0,VALID,90.1657,VALID,0,VALID,25.7655,VALID,11,VALID,0.494531,
2012-05-25, 00:05:04,VALID,1003.94,VALID,0,VALID,89.8606,VALID,0,VALID,25.8239,VALID,11,VALID,0.833594,
2012-05-25, 00:06:04,VALID,1003.91,VALID,0,VALID,89.5783,VALID,0,VALID,25.9038,VALID,17,VALID,0.710156,
2012-05-25, 00:07:04,VALID,1003.93,VALID,0,VALID,89.2045,VALID,0,VALID,25.9622,VALID,21,VALID,0.657812,
2012-05-25, 00:08:04,VALID,1003.94,VALID,0,VALID,88.9222,VALID,0,VALID,26.0012,VALID,21,VALID,0.516797,
2012-05-25, 00:09:04,VALID,1003.95,VALID,0,VALID,88.762,VALID,0,VALID,26.0401,VALID,21,VALID,0.478125,
2012-05-25, 00:10:04,VALID,1003.92,VALID,0,VALID,88.6705,VALID,0,VALID,26.0596,VALID,21,VALID,0.559375,
2012-05-25, 00:11:04,VALID,1003.93,VALID,0,VALID,88.6171,VALID,0,VALID,26.0771,VALID,20,VALID,0.429297,
2012-05-25, 00:12:04,VALID,1003.93,VALID,0,VALID,88.4569,VALID,0,VALID,26.118,VALID,20,VALID,0.447656,
2012-05-25, 00:13:04,VALID,1003.94,VALID,0,VALID,88.3348,VALID,0,VALID,26.116,VALID,20,VALID,0.460156,
2012-05-25, 00:14:04,VALID,1003.94,VALID,0,VALID,88.4035,VALID,0,VALID,26.0966,VALID,20,VALID,0.377344,
2012-05-25, 00:15:04,VALID,1003.93,VALID,0,VALID,88.2738,VALID,0,VALID,26.0985,VALID,20,VALID,0.313281,
2012-05-25, 00:16:04,VALID,1003.92,VALID,0,VALID,87.8618,VALID,0,VALID,26.0966,VALID,20,VALID,0.541016,
2012-05-25, 00:17:04,VALID,1003.92,VALID,0,VALID,87.7779,VALID,0,VALID,26.155,VALID,20,VALID,0.580078,
2012-05-25, 00:18:04,VALID,1003.89,VALID,0,VALID,87.3888,VALID,0,VALID,26.1745,VALID,20,VALID,0.439063,
2012-05-25, 00:19:04,VALID,1003.88,VALID,0,VALID,87.5719,VALID,0,VALID,26.2134,VALID,20,VALID,0,
2012-05-25, 00:20:04,VALID,1003.87,VALID,0,VALID,87.4117,VALID,0,VALID,26.194,VALID,20,VALID,0,
2012-05-25, 00:21:04,VALID,1003.89,VALID,0,VALID,87.5033,VALID,0,VALID,26.2154,VALID,38,VALID,0,
2012-05-25, 00:22:04,VALID,1003.88,VALID,0,VALID,87.7703,VALID,0,VALID,26.1375,VALID,38,VALID,0,
2012-05-25, 00:23:04,VALID,1003.86,VALID,0,VALID,88.1136,VALID,0,VALID,26.0771,VALID,38,VALID,0,
2012-05-25, 00:24:04,VALID,1003.9,VALID,0,VALID,88.2738,VALID,0,VALID,26.0381,VALID,38,VALID,0.413281,
2012-05-25, 00:25:04,VALID,1003.88,VALID,0,VALID,88.3577,VALID,0,VALID,25.9797,VALID,38,VALID,0,
2012-05-25, 00:26:04,VALID,1003.86,VALID,0,VALID,88.7697,VALID,0,VALID,25.9622,VALID,38,VALID,0,
2012-05-25, 00:27:04,VALID,1003.86,VALID,0,VALID,88.9451,VALID,0,VALID,25.8823,VALID,38,VALID,0.427344,
2012-05-25, 00:28:04,VALID,1003.89,VALID,0,VALID,89.1664,VALID,0,VALID,25.9038,VALID,38,VALID,0.503125,
2012-05-25, 00:29:04,VALID,1003.86,VALID,0,VALID,89.3571,VALID,0,VALID,25.8259,VALID,38,VALID,0.166406,
2012-05-25, 00:30:04,VALID,1003.84,VALID,0,VALID,89.6165,VALID,0,VALID,25.7655,VALID,24,VALID,0.304297,
2012-05-25, 00:31:04,VALID,1003.84,VALID,0,VALID,89.8835,VALID,0,VALID,25.748,VALID,24,VALID,0.288281,
2012-05-25, 00:32:04,VALID,1003.81,VALID,0,VALID,89.9369,VALID,0,VALID,25.6876,VALID,24,VALID,0.510156,
2012-05-25, 00:33:04,VALID,1003.8,VALID,0,VALID,90.0055,VALID,0,VALID,25.6895,VALID,22,VALID,0.4,
2012-05-25, 00:34:04,VALID,1003.8,VALID,0,VALID,90.1581,VALID,0,VALID,25.6506,VALID,22,VALID,0.395703,
2012-05-25, 00:35:04,VALID,1003.83,VALID,0,VALID,90.2344,VALID,0,VALID,25.5902,VALID,22,VALID,0.411328,
2012-05-25, 00:36:04,VALID,1003.84,VALID,0,VALID,90.2954,VALID,0,VALID,25.5513,VALID,22,VALID,0.377734,
2012-05-25, 00:37:04,VALID,1003.83,VALID,0,VALID,90.4556,VALID,0,VALID,25.5142,VALID,22,VALID,0.423828,
2012-05-25, 00:38:04,VALID,1003.85,VALID,0,VALID,90.6616,VALID,0,VALID,25.4558,VALID,22,VALID,0.502734,
2012-05-25, 00:39:04,VALID,1003.87,VALID,0,VALID,90.9363,VALID,0,VALID,25.376,VALID,22,VALID,0.516797,
2012-05-25, 00:40:04,VALID,1003.89,VALID,0,VALID,91.0736,VALID,0,VALID,25.3584,VALID,22,VALID,0.255859,
2012-05-25, 00:41:04,VALID,1003.89,VALID,0,VALID,91.2185,VALID,0,VALID,25.339,VALID,22,VALID,0.173828,
2012-05-25, 00:42:04,VALID,1003.92,VALID,0,VALID,91.2872,VALID,0,VALID,25.2592,VALID,22,VALID,0.485938,
2012-05-25, 00:43:04,VALID,1003.94,VALID,0,VALID,91.5389,VALID,0,VALID,25.2397,VALID,20,VALID,0.619141,
2012-05-25, 00:44:04,VALID,1003.96,VALID,0,VALID,91.867,VALID,0,VALID,25.2611,VALID,357,VALID,0.618359,
2012-05-25, 00:45:04,VALID,1003.98,VALID,0,VALID,91.8136,VALID,0,VALID,25.2806,VALID,357,VALID,0.512109,
2012-05-25, 00:46:04,VALID,1003.97,VALID,0,VALID,91.7297,VALID,0,VALID,25.2806,VALID,357,VALID,0.486328,
2012-05-25, 00:47:04,VALID,1003.99,VALID,0,VALID,91.7068,VALID,0,VALID,25.2806,VALID,357,VALID,0.338281,
2012-05-25, 00:48:04,VALID,1003.96,VALID,0,VALID,91.6991,VALID,0,VALID,25.2806,VALID,357,VALID,0.250781,
2012-05-25, 00:49:04,VALID,1003.97,VALID,0,VALID,91.6229,VALID,0,VALID,25.2416,VALID,357,VALID,0.211719,
2012-05-25, 00:50:04,VALID,1004,VALID,0,VALID,91.6991,VALID,0,VALID,25.2202,VALID,357,VALID,0,
2012-05-25, 00:51:04,VALID,1004,VALID,0,VALID,91.7907,VALID,0,VALID,25.2202,VALID,357,VALID,0,
2012-05-25, 00:52:04,VALID,1003.97,VALID,0,VALID,91.8212,VALID,0,VALID,25.1813,VALID,357,VALID,0,
2012-05-25, 00:53:04,VALID,1004,VALID,0,VALID,91.8822,VALID,0,VALID,25.2027,VALID,357,VALID,0,
2012-05-25, 00:54:04,VALID,1003.95,VALID,0,VALID,91.7907,VALID,0,VALID,25.1637,VALID,357,VALID,0,
2012-05-25, 00:55:04,VALID,1003.93,VALID,0,VALID,91.7525,VALID,0,VALID,25.1248,VALID,357,VALID,0.448828,
2012-05-25, 00:56:04,VALID,1003.94,VALID,0,VALID,91.6839,VALID,0,VALID,25.045,VALID,357,VALID,0.398047,
2012-05-25, 00:57:04,VALID,1003.89,VALID,0,VALID,91.867,VALID,0,VALID,25.0079,VALID,357,VALID,0.278125,
2012-05-25, 00:58:04,VALID,1003.86,VALID,0,VALID,92.0882,VALID,0,VALID,25.0079,VALID,357,VALID,0.275,
2012-05-25, 00:59:04,VALID,1003.86,VALID,0,VALID,92.2179,VALID,0,VALID,24.9671,VALID,357,VALID,0.296875,
2012-05-25, 01:00:04,VALID,1003.84,VALID,0,VALID,92.4697,VALID,0,VALID,24.969,VALID,357,VALID,0.425781,
2012-05-25, 01:01:04,VALID,1003.84,VALID,0,VALID,92.5078,VALID,0,VALID,24.9476,VALID,357,VALID,0.476563,
2012-05-25, 01:02:04,VALID,1003.78,VALID,0,VALID,92.5536,VALID,0,VALID,24.969,VALID,359,VALID,0.483984,
2012-05-25, 01:03:04,VALID,1003.78,VALID,0,VALID,92.5002,VALID,0,VALID,24.9087,VALID,359,VALID,0.263281,
2012-05-25, 01:04:04,VALID,1003.74,VALID,0,VALID,92.5612,VALID,0,VALID,24.9106,VALID,359,VALID,0.290625,
2012-05-25, 01:05:04,VALID,1003.74,VALID,0,VALID,92.5612,VALID,0,VALID,24.8503,VALID,359,VALID,0,
2012-05-25, 01:06:04,VALID,1003.72,VALID,0,VALID,92.5841,VALID,0,VALID,24.8716,VALID,359,VALID,0,
2012-05-25, 01:07:04,VALID,1003.7,VALID,0,VALID,92.668,VALID,0,VALID,24.8308,VALID,359,VALID,0,
2012-05-25, 01:08:04,VALID,1003.68,VALID,0,VALID,92.7214,VALID,0,VALID,24.8113,VALID,359,VALID,0,
2012-05-25, 01:09:04,VALID,1003.67,VALID,0,VALID,92.729,VALID,0,VALID,24.7919,VALID,359,VALID,0,
2012-05-25, 01:10:04,VALID,1003.68,VALID,0,VALID,92.7367,VALID,0,VALID,24.7743,VALID,359,VALID,0,
2012-05-25, 01:11:04,VALID,1003.71,VALID,0,VALID,92.7367,VALID,0,VALID,24.7529,VALID,359,VALID,0,
2012-05-25, 01:12:04,VALID,1003.69,VALID,0,VALID,92.7519,VALID,0,VALID,24.7353,VALID,359,VALID,0,
2012-05-25, 01:13:04,VALID,1003.7,VALID,0,VALID,92.8511,VALID,0.0815089,VALID,24.6945,VALID,359,VALID,0,
2012-05-25, 01:14:04,VALID,1003.69,VALID,0,VALID,92.9884,VALID,0,VALID,24.6945,VALID,359,VALID,0,
2012-05-25, 01:15:04,VALID,1003.63,VALID,0,VALID,93.08,VALID,0,VALID,24.7353,VALID,359,VALID,0,
2012-05-25, 01:16:04,VALID,1003.63,VALID,0,VALID,93.1563,VALID,0,VALID,24.6945,VALID,359,VALID,0,
2012-05-25, 01:17:04,VALID,1003.63,VALID,0,VALID,93.1944,VALID,0,VALID,24.7335,VALID,359,VALID,0,
2012-05-25, 01:18:04,VALID,1003.62,VALID,0,VALID,93.202,VALID,0.0815089,VALID,24.7335,VALID,359,VALID,0,
2012-05-25, 01:19:04,VALID,1003.6,VALID,0,VALID,93.1791,VALID,0,VALID,24.7548,VALID,359,VALID,0,
2012-05-25, 01:20:04,VALID,1003.61,VALID,0,VALID,93.2173,VALID,0.0815089,VALID,24.7335,VALID,359,VALID,0,
2012-05-25, 01:21:04,VALID,1003.6,VALID,0,VALID,93.2478,VALID,0,VALID,24.7529,VALID,30,VALID,0,
2012-05-25, 01:22:04,VALID,1003.59,VALID,0,VALID,93.3165,VALID,0,VALID,24.7743,VALID,31,VALID,0,
2012-05-25, 01:23:04,VALID,1003.6,VALID,0,VALID,93.2783,VALID,0.0815089,VALID,24.7724,VALID,31,VALID,0,
2012-05-25, 01:24:04,VALID,1003.58,VALID,0,VALID,93.2249,VALID,0,VALID,24.7529,VALID,31,VALID,0,
2012-05-25, 01:25:04,VALID,1003.56,VALID,0,VALID,93.2325,VALID,0.0815089,VALID,24.7529,VALID,31,VALID,0,
2012-05-25, 01:26:04,VALID,1003.55,VALID,0,VALID,93.2783,VALID,0,VALID,24.7724,VALID,31,VALID,0,
2012-05-25, 01:27:04,VALID,1003.53,VALID,0,VALID,93.1715,VALID,0,VALID,24.7724,VALID,31,VALID,0,
2012-05-25, 01:28:04,VALID,1003.55,VALID,0,VALID,93.1257,VALID,0,VALID,24.7335,VALID,31,VALID,0,
2012-05-25, 01:29:04,VALID,1003.51,VALID,0,VALID,93.1334,VALID,0.0815089,VALID,24.7335,VALID,31,VALID,0,
2012-05-25, 01:30:04,VALID,1003.49,VALID,0,VALID,93.0723,VALID,0.0815089,VALID,24.7335,VALID,31,VALID,0,
2012-05-25, 01:31:04,VALID,1003.47,VALID,0,VALID,93.0571,VALID,0,VALID,24.7548,VALID,31,VALID,0,
2012-05-25, 01:32:04,VALID,1003.42,VALID,0,VALID,93.1715,VALID,0.0815089,VALID,24.7529,VALID,30,VALID,0.565234,
2012-05-25, 01:33:04,VALID,1003.42,VALID,0,VALID,93.1334,VALID,0,VALID,24.7937,VALID,30,VALID,0.173828,
2012-05-25, 01:34:04,VALID,1003.37,VALID,0,VALID,93.0037,VALID,0,VALID,24.7937,VALID,30,VALID,0.518359,
2012-05-25, 01:35:04,VALID,1003.37,VALID,0,VALID,92.9884,VALID,0,VALID,24.7724,VALID,30,VALID,0.33125,
2012-05-25, 01:36:04,VALID,1003.34,VALID,0,VALID,92.9579,VALID,0,VALID,24.7705,VALID,27,VALID,0.537891,
2012-05-25, 01:37:04,VALID,1003.33,VALID,0,VALID,92.8816,VALID,0,VALID,24.8113,VALID,26,VALID,0.378906,
2012-05-25, 01:38:04,VALID,1003.33,VALID,0,VALID,92.7901,VALID,0,VALID,24.8308,VALID,26,VALID,0.417969,
2012-05-25, 01:39:04,VALID,1003.29,VALID,0,VALID,92.7977,VALID,0,VALID,24.8503,VALID,26,VALID,0.241406,
2012-05-25, 01:40:04,VALID,1003.3,VALID,0,VALID,92.7367,VALID,0.0815089,VALID,24.8892,VALID,26,VALID,0.262891,
2012-05-25, 01:41:04,VALID,1003.29,VALID,0,VALID,92.6375,VALID,0,VALID,24.93,VALID,26,VALID,0,
2012-05-25, 01:42:04,VALID,1003.27,VALID,0,VALID,92.5841,VALID,0.0815089,VALID,24.9282,VALID,26,VALID,0.343359,
2012-05-25, 01:43:04,VALID,1003.26,VALID,0,VALID,92.4163,VALID,0.0815089,VALID,24.969,VALID,26,VALID,0.126953,
2012-05-25, 01:44:04,VALID,1003.25,VALID,0,VALID,92.2561,VALID,0,VALID,24.9652,VALID,26,VALID,0.105469,
2012-05-25, 01:45:04,VALID,1003.24,VALID,0,VALID,92.0806,VALID,0,VALID,25.0079,VALID,26,VALID,0,
2012-05-25, 01:46:04,VALID,1003.21,VALID,0,VALID,91.928,VALID,0,VALID,24.9866,VALID,26,VALID,0,
2012-05-25, 01:47:04,VALID,1003.19,VALID,0,VALID,91.8441,VALID,0,VALID,24.9671,VALID,26,VALID,0,
2012-05-25, 01:48:04,VALID,1003.21,VALID,0,VALID,91.867,VALID,0,VALID,25.0079,VALID,26,VALID,0,
2012-05-25, 01:49:04,VALID,1003.19,VALID,0,VALID,91.8746,VALID,0,VALID,25.0079,VALID,26,VALID,0.293359,
2012-05-25, 01:50:04,VALID,1003.2,VALID,0,VALID,91.7754,VALID,0,VALID,25.0079,VALID,26,VALID,0.484375,
2012-05-25, 01:51:04,VALID,1003.22,VALID,0,VALID,91.6839,VALID,0.0815089,VALID,24.9866,VALID,26,VALID,0.463281,
2012-05-25, 01:52:04,VALID,1003.21,VALID,0,VALID,91.6839,VALID,0,VALID,24.9866,VALID,26,VALID,0.400391,
2012-05-25, 01:53:04,VALID,1003.2,VALID,0,VALID,91.6839,VALID,0,VALID,24.9866,VALID,26,VALID,0.442969,
2012-05-25, 01:54:04,VALID,1003.23,VALID,0,VALID,91.722,VALID,0,VALID,25.006,VALID,26,VALID,0.475,
2012-05-25, 01:55:04,VALID,1003.21,VALID,0,VALID,91.6,VALID,0,VALID,25.0255,VALID,25,VALID,0.451953,
2012-05-25, 01:56:04,VALID,1003.21,VALID,0,VALID,91.4016,VALID,0,VALID,25.0255,VALID,25,VALID,0.549609,
2012-05-25, 01:57:04,VALID,1003.22,VALID,0,VALID,91.394,VALID,0.0815089,VALID,25.0644,VALID,16,VALID,0.405078,
2012-05-25, 01:58:04,VALID,1003.19,VALID,0,VALID,91.1956,VALID,0,VALID,25.0858,VALID,17,VALID,0.238281,
2012-05-25, 01:59:04,VALID,1003.18,VALID,0,VALID,91.0888,VALID,0,VALID,25.0255,VALID,17,VALID,0.188281,
2012-05-25, 02:00:04,VALID,1003.2,VALID,0,VALID,91.0888,VALID,0,VALID,25.0255,VALID,17,VALID,0.284375,
2012-05-25, 02:01:04,VALID,1003.18,VALID,0,VALID,91.0965,VALID,0,VALID,25.0274,VALID,17,VALID,0.0546875,
2012-05-25, 02:02:04,VALID,1003.18,VALID,0,VALID,91.127,VALID,0,VALID,25.006,VALID,17,VALID,0.0558594,
2012-05-25, 02:03:04,VALID,1003.13,VALID,0,VALID,91.2033,VALID,0,VALID,24.9671,VALID,17,VALID,0.427734,
2012-05-25, 02:04:04,VALID,1003.14,VALID,0,VALID,91.2796,VALID,0,VALID,24.9885,VALID,17,VALID,0.360547,
2012-05-25, 02:05:04,VALID,1003.12,VALID,0,VALID,91.5389,VALID,0,VALID,24.9866,VALID,27,VALID,0.532812,
2012-05-25, 02:06:04,VALID,1003.11,VALID,0,VALID,91.6305,VALID,0,VALID,25.0079,VALID,34,VALID,0.417578,
2012-05-25, 02:07:04,VALID,1003.11,VALID,0,VALID,91.4855,VALID,0.0815089,VALID,24.9866,VALID,34,VALID,0.485547,
2012-05-25, 02:08:04,VALID,1003.07,VALID,0,VALID,91.5313,VALID,0,VALID,24.9671,VALID,34,VALID,0.450391,
2012-05-25, 02:09:04,VALID,1003.08,VALID,0,VALID,91.5084,VALID,0,VALID,24.9457,VALID,34,VALID,0.634766,
2012-05-25, 02:10:04,VALID,1003.04,VALID,0,VALID,91.4932,VALID,0,VALID,24.9087,VALID,34,VALID,0.626953,
2012-05-25, 02:11:04,VALID,1003.04,VALID,0,VALID,91.6305,VALID,0,VALID,24.8892,VALID,34,VALID,0.607422,
2012-05-25, 02:12:04,VALID,1003.02,VALID,0,VALID,91.7602,VALID,0,VALID,24.8697,VALID,34,VALID,0.498437,
2012-05-25, 02:13:04,VALID,1003.04,VALID,0,VALID,91.9051,VALID,0.0815089,VALID,24.8503,VALID,34,VALID,0.4375,
2012-05-25, 02:14:04,VALID,1002.97,VALID,0,VALID,91.8746,VALID,0,VALID,24.8327,VALID,34,VALID,0.491797,
2012-05-25, 02:15:04,VALID,1002.95,VALID,0,VALID,91.9738,VALID,0,VALID,24.7724,VALID,34,VALID,0.566406,
2012-05-25, 02:16:04,VALID,1002.94,VALID,0,VALID,92.134,VALID,0,VALID,24.7529,VALID,34,VALID,0.280078,
2012-05-25, 02:17:04,VALID,1002.93,VALID,0,VALID,92.2255,VALID,0,VALID,24.7335,VALID,34,VALID,0.355859,
2012-05-25, 02:18:04,VALID,1002.92,VALID,0,VALID,92.2332,VALID,0.0815089,VALID,24.6926,VALID,34,VALID,0.199219,
2012-05-25, 02:19:04,VALID,1002.94,VALID,0,VALID,92.2866,VALID,0,VALID,24.6964,VALID,34,VALID,0.282813,
2012-05-25, 02:20:04,VALID,1002.95,VALID,0,VALID,92.3705,VALID,0,VALID,24.675,VALID,48,VALID,0.301562,
2012-05-25, 02:21:04,VALID,1002.9,VALID,0,VALID,92.5231,VALID,0,VALID,24.6556,VALID,48,VALID,0.247266,
2012-05-25, 02:22:04,VALID,1002.88,VALID,0,VALID,92.5917,VALID,0,VALID,24.6769,VALID,48,VALID,0.571094,
2012-05-25, 02:23:04,VALID,1002.88,VALID,0,VALID,92.5917,VALID,0,VALID,24.6361,VALID,48,VALID,0.433594,
2012-05-25, 02:24:04,VALID,1002.91,VALID,0,VALID,92.6375,VALID,0,VALID,24.6361,VALID,48,VALID,0.459375,
2012-05-25, 02:25:04,VALID,1002.84,VALID,0,VALID,92.6146,VALID,0,VALID,24.6166,VALID,44,VALID,0.494922,
2012-05-25, 02:26:04,VALID,1002.82,VALID,0,VALID,92.813,VALID,0,VALID,24.6166,VALID,352,VALID,0.657422,
2012-05-25, 02:27:04,VALID,1002.82,VALID,0,VALID,92.9808,VALID,0,VALID,24.6574,VALID,352,VALID,0.761328,
2012-05-25, 02:28:04,VALID,1002.8,VALID,0,VALID,92.874,VALID,0.0815089,VALID,24.6556,VALID,352,VALID,0.553906,
2012-05-25, 02:29:04,VALID,1002.79,VALID,0,VALID,92.9655,VALID,0,VALID,24.6556,VALID,352,VALID,0.725,
2012-05-25, 02:30:04,VALID,1002.78,VALID,0,VALID,93.1944,VALID,0,VALID,24.714,VALID,352,VALID,0.821875,
2012-05-25, 02:31:04,VALID,1002.75,VALID,0,VALID,92.9884,VALID,0,VALID,24.7529,VALID,352,VALID,0.585547,
2012-05-25, 02:32:04,VALID,1002.71,VALID,0,VALID,92.7824,VALID,0,VALID,24.7529,VALID,352,VALID,0.427344,
2012-05-25, 02:33:04,VALID,1002.68,VALID,0,VALID,92.6375,VALID,0,VALID,24.7121,VALID,352,VALID,0.625,
2012-05-25, 02:34:04,VALID,1002.7,VALID,0,VALID,92.607,VALID,0,VALID,24.6945,VALID,352,VALID,0.490625,
2012-05-25, 02:35:04,VALID,1002.68,VALID,0,VALID,92.6451,VALID,0,VALID,24.675,VALID,352,VALID,0.562109,
2012-05-25, 02:36:04,VALID,1002.66,VALID,0,VALID,92.7062,VALID,0,VALID,24.675,VALID,352,VALID,0.372266,
2012-05-25, 02:37:04,VALID,1002.69,VALID,0,VALID,92.7443,VALID,0,VALID,24.6556,VALID,352,VALID,0.0429688,
2012-05-25, 02:38:04,VALID,1002.69,VALID,0,VALID,92.7596,VALID,0,VALID,24.6361,VALID,352,VALID,0.0773437,
2012-05-25, 02:39:04,VALID,1002.67,VALID,0,VALID,92.6451,VALID,0,VALID,24.6166,VALID,352,VALID,0.326562,
2012-05-25, 02:40:04,VALID,1002.64,VALID,0,VALID,92.6375,VALID,0,VALID,24.5777,VALID,355,VALID,0.388281,
2012-05-25, 02:41:04,VALID,1002.67,VALID,0,VALID,92.6909,VALID,0,VALID,24.5777,VALID,360,VALID,0.284375,
2012-05-25, 02:42:04,VALID,1002.7,VALID,0,VALID,92.7824,VALID,0,VALID,24.5796,VALID,360,VALID,0.374219,
2012-05-25, 02:43:04,VALID,1002.68,VALID,0,VALID,92.7977,VALID,0,VALID,24.5388,VALID,360,VALID,0.214453,
2012-05-25, 02:44:04,VALID,1002.63,VALID,0,VALID,92.8969,VALID,0,VALID,24.5388,VALID,1,VALID,0.516797,
2012-05-25, 02:45:04,VALID,1002.65,VALID,0,VALID,92.8969,VALID,0,VALID,24.5174,VALID,1,VALID,0.475391,
2012-05-25, 02:46:04,VALID,1002.62,VALID,0,VALID,93.0418,VALID,0.0815089,VALID,24.5388,VALID,2,VALID,0.392188,
2012-05-25, 02:47:04,VALID,1002.59,VALID,0,VALID,93.1029,VALID,0,VALID,24.5796,VALID,2,VALID,0.309766,
2012-05-25, 02:48:04,VALID,1002.6,VALID,0,VALID,93.0571,VALID,0,VALID,24.5193,VALID,2,VALID,0,
2012-05-25, 02:49:04,VALID,1002.55,VALID,0,VALID,93.0266,VALID,0,VALID,24.498,VALID,2,VALID,0,
2012-05-25, 02:50:04,VALID,1002.55,VALID,0,VALID,93.0495,VALID,0,VALID,24.4998,VALID,2,VALID,0,
2012-05-25, 02:51:04,VALID,1002.54,VALID,0,VALID,93.0647,VALID,0,VALID,24.4998,VALID,2,VALID,0.313672,
2012-05-25, 02:52:04,VALID,1002.53,VALID,0,VALID,93.1639,VALID,0,VALID,24.5212,VALID,3,VALID,0.262109,
2012-05-25, 02:53:04,VALID,1002.52,VALID,0,VALID,93.2707,VALID,0,VALID,24.5406,VALID,8,VALID,0.357031,
2012-05-25, 02:54:04,VALID,1002.53,VALID,0,VALID,93.2859,VALID,0,VALID,24.5388,VALID,8,VALID,0.489453,
2012-05-25, 02:55:04,VALID,1002.5,VALID,0,VALID,93.3012,VALID,0,VALID,24.5388,VALID,8,VALID,0.389062,
2012-05-25, 02:56:04,VALID,1002.49,VALID,0,VALID,93.2173,VALID,0,VALID,24.5388,VALID,20,VALID,0.230469,
2012-05-25, 02:57:04,VALID,1002.49,VALID,0,VALID,93.1715,VALID,0,VALID,24.4998,VALID,20,VALID,0,
2012-05-25, 02:58:04,VALID,1002.47,VALID,0,VALID,93.1639,VALID,0,VALID,24.4998,VALID,20,VALID,0,
2012-05-25, 02:59:04,VALID,1002.46,VALID,0,VALID,93.1181,VALID,0,VALID,24.4804,VALID,20,VALID,0,
2012-05-25, 03:00:04,VALID,1002.45,VALID,0,VALID,93.1181,VALID,0,VALID,24.4609,VALID,20,VALID,0,
2012-05-25, 03:01:04,VALID,1002.44,VALID,0,VALID,93.1715,VALID,0,VALID,24.4609,VALID,20,VALID,0,
2012-05-25, 03:02:04,VALID,1002.46,VALID,0,VALID,93.1563,VALID,0,VALID,24.4414,VALID,20,VALID,0,
2012-05-25, 03:03:04,VALID,1002.43,VALID,0,VALID,93.2173,VALID,0,VALID,24.4414,VALID,20,VALID,0,
2012-05-25, 03:04:04,VALID,1002.43,VALID,0,VALID,93.2478,VALID,0,VALID,24.4414,VALID,20,VALID,0,
2012-05-25, 03:05:04,VALID,1002.43,VALID,0,VALID,93.347,VALID,0,VALID,24.4414,VALID,20,VALID,0,
2012-05-25, 03:06:04,VALID,1002.4,VALID,0,VALID,93.3394,VALID,0,VALID,24.4822,VALID,20,VALID,0,
2012-05-25, 03:07:04,VALID,1002.42,VALID,0,VALID,93.4843,VALID,0,VALID,24.4998,VALID,23,VALID,0,
2012-05-25, 03:08:04,VALID,1002.42,VALID,0,VALID,93.5224,VALID,0,VALID,24.4998,VALID,23,VALID,0,
2012-05-25, 03:09:04,VALID,1002.44,VALID,0,VALID,93.4996,VALID,0,VALID,24.5193,VALID,23,VALID,0,
2012-05-25, 03:10:04,VALID,1002.45,VALID,0,VALID,93.5911,VALID,0.0815089,VALID,24.5388,VALID,53,VALID,0.371875,
2012-05-25, 03:11:04,VALID,1002.41,VALID,0,VALID,93.6064,VALID,0,VALID,24.5388,VALID,53,VALID,0.212109,
2012-05-25, 03:12:04,VALID,1002.43,VALID,0,VALID,93.5377,VALID,0,VALID,24.5777,VALID,53,VALID,0.000390625,
2012-05-25, 03:13:04,VALID,1002.44,VALID,0,VALID,93.5377,VALID,0,VALID,24.5777,VALID,53,VALID,0.406641,
2012-05-25, 03:14:04,VALID,1002.43,VALID,0,VALID,93.5377,VALID,0,VALID,24.5972,VALID,53,VALID,0.355469,
2012-05-25, 03:15:04,VALID,1002.44,VALID,0,VALID,93.4843,VALID,0,VALID,24.5777,VALID,53,VALID,0.453906,
2012-05-25, 03:16:04,VALID,1002.44,VALID,0,VALID,93.4385,VALID,0,VALID,24.5582,VALID,53,VALID,0.405078,
2012-05-25, 03:17:04,VALID,1002.45,VALID,0,VALID,93.3546,VALID,0,VALID,24.5369,VALID,53,VALID,0.351953,
2012-05-25, 03:18:04,VALID,1002.46,VALID,0,VALID,93.3012,VALID,0,VALID,24.5388,VALID,53,VALID,0.341406,
2012-05-25, 03:19:04,VALID,1002.47,VALID,0,VALID,93.3241,VALID,0,VALID,24.5193,VALID,53,VALID,0.449609,
2012-05-25, 03:20:04,VALID,1002.49,VALID,0,VALID,93.3088,VALID,0,VALID,24.5193,VALID,52,VALID,0.575781,
2012-05-25, 03:21:04,VALID,1002.49,VALID,0,VALID,93.2936,VALID,0.0815089,VALID,24.5193,VALID,52,VALID,0.487891,
2012-05-25, 03:22:04,VALID,1002.5,VALID,0,VALID,93.3165,VALID,0,VALID,24.4998,VALID,52,VALID,0.464063,
2012-05-25, 03:23:04,VALID,1002.53,VALID,0,VALID,93.4004,VALID,0,VALID,24.5193,VALID,52,VALID,0.399609,
2012-05-25, 03:24:04,VALID,1002.52,VALID,0,VALID,93.4309,VALID,0,VALID,24.5193,VALID,50,VALID,0.383594,
2012-05-25, 03:25:04,VALID,1002.53,VALID,0,VALID,93.4614,VALID,0,VALID,24.5388,VALID,50,VALID,0.294531,
2012-05-25, 03:26:04,VALID,1002.56,VALID,0,VALID,93.4919,VALID,0,VALID,24.5388,VALID,50,VALID,0.265625,
2012-05-25, 03:27:04,VALID,1002.59,VALID,0,VALID,93.4233,VALID,0.0815089,VALID,24.5174,VALID,50,VALID,0,
2012-05-25, 03:28:04,VALID,1002.6,VALID,0,VALID,93.4233,VALID,0,VALID,24.5601,VALID,50,VALID,0.208984,
2012-05-25, 03:29:04,VALID,1002.66,VALID,0,VALID,93.3546,VALID,0.0815089,VALID,24.5388,VALID,50,VALID,0.288281,
2012-05-25, 03:30:04,VALID,1002.65,VALID,0,VALID,93.2936,VALID,0.0815089,VALID,24.5388,VALID,50,VALID,0.106641,
2012-05-25, 03:31:04,VALID,1002.69,VALID,0,VALID,93.2783,VALID,0,VALID,24.5193,VALID,50,VALID,0.299609,
2012-05-25, 03:32:04,VALID,1002.72,VALID,0,VALID,93.2859,VALID,0,VALID,24.5193,VALID,50,VALID,0.378906,
2012-05-25, 03:33:04,VALID,1002.72,VALID,0,VALID,93.4233,VALID,0,VALID,24.5388,VALID,50,VALID,0.516406,
2012-05-25, 03:34:04,VALID,1002.72,VALID,0,VALID,93.5148,VALID,0.0815089,VALID,24.5777,VALID,52,VALID,0.242578,
2012-05-25, 03:35:04,VALID,1002.7,VALID,0,VALID,93.469,VALID,0,VALID,24.5972,VALID,52,VALID,0,
2012-05-25, 03:36:04,VALID,1002.7,VALID,0,VALID,93.469,VALID,0,VALID,24.5972,VALID,52,VALID,0.492188,
2012-05-25, 03:37:04,VALID,1002.71,VALID,0,VALID,93.4385,VALID,0,VALID,24.5758,VALID,52,VALID,0.431641,
2012-05-25, 03:38:04,VALID,1002.67,VALID,0,VALID,93.3622,VALID,0,VALID,24.5972,VALID,52,VALID,0.480859,
2012-05-25, 03:39:04,VALID,1002.71,VALID,0,VALID,93.347,VALID,0,VALID,24.5972,VALID,52,VALID,0.425781,
2012-05-25, 03:40:04,VALID,1002.72,VALID,0,VALID,93.3317,VALID,0,VALID,24.5777,VALID,52,VALID,0,
2012-05-25, 03:41:04,VALID,1002.7,VALID,0,VALID,93.2631,VALID,0.0815089,VALID,24.5777,VALID,52,VALID,0.00078125,
2012-05-25, 03:42:04,VALID,1002.7,VALID,0,VALID,93.3088,VALID,0,VALID,24.5777,VALID,52,VALID,0.353906,
2012-05-25, 03:43:05,VALID,1002.67,VALID,0,VALID,93.2478,VALID,0.0815089,VALID,24.5369,VALID,52,VALID,0.525781,
2012-05-25, 03:44:05,VALID,1002.7,VALID,0,VALID,93.1791,VALID,0,VALID,24.5601,VALID,52,VALID,0.413672,
2012-05-25, 03:45:05,VALID,1002.72,VALID,0,VALID,93.1715,VALID,0.0815089,VALID,24.5193,VALID,52,VALID,0.489844,
2012-05-25, 03:46:05,VALID,1002.74,VALID,0,VALID,93.2173,VALID,0.0815089,VALID,24.4998,VALID,52,VALID,0.469922,
2012-05-25, 03:47:05,VALID,1002.72,VALID,0,VALID,93.2936,VALID,0,VALID,24.5193,VALID,52,VALID,0.449609,
2012-05-25, 03:48:05,VALID,1002.74,VALID,0,VALID,93.3165,VALID,0.0815089,VALID,24.5193,VALID,52,VALID,0.307422,